INTELSAT 19 (IS-19)

Last updated on Sun Jun 21 2026 00:03:05 GMT+0000 (Coordinated Universal Time)

1 38356U 12030A 26171.37822667 -.00000061 00000+0 00000+0 0 9995 2 38356 0.0149 26.2915 0003032 71.0261 113.4249 1.00271802 50483
UTC large
Height (km)
Speed (km/s)
/
Latitude / Longitude
Inclination (degrees)
Orbital Period (minutes)
Azimuth
Elevation
Range (km)
Doppler Factor

Next 0 passes for location: London (51.5072 / 0.1276)

No passes found over London.
INTELSAT 19 (IS-19)